Time,TemperatureF,DewpointF,PressureIn,WindDirection,WindDirectionDegrees,WindSpeedMPH,WindSpeedGustMPH,Humidity,HourlyPrecipIn,Conditions,Clouds,dailyrainin,SoftwareType,DateUTC
2013-02-22 00:01:00,5.0,3.0,-100.00,SW,234,0.0,1.0,92,-99.99,,,-99.99,,2013-02-22 07:01:00,
2013-02-22 00:11:00,5.0,3.0,-100.00,SW,234,0.0,1.0,92,-99.99,,,-99.99,,2013-02-22 07:11:00,
2013-02-22 00:21:00,5.0,3.0,-100.00,SW,214,1.0,1.0,92,-99.99,,,-99.99,,2013-02-22 07:21:00,
2013-02-22 00:31:00,5.0,3.0,-100.00,SW,214,1.0,1.0,92,-99.99,,,-99.99,,2013-02-22 07:31:00,
2013-02-22 00:42:00,5.0,3.0,-100.00,SW,214,1.0,1.0,92,-99.99,,,-99.99,,2013-02-22 07:42:00,
2013-02-22 01:31:00,5.0,2.0,-100.00,South,177,1.0,1.0,85,-99.99,,,-99.99,,2013-02-22 08:31:00,
2013-02-22 01:41:00,5.0,2.0,-100.00,South,177,1.0,1.0,85,-99.99,,,-99.99,,2013-02-22 08:41:00,
2013-02-22 01:52:00,5.0,2.0,-100.00,SSW,200,0.0,1.0,86,-99.99,,,-99.99,,2013-02-22 08:52:00,
2013-02-22 02:03:00,5.0,2.0,-100.00,SW,216,0.0,1.0,87,-99.99,,,-99.99,,2013-02-22 09:03:00,
2013-02-22 02:11:00,5.0,2.0,-100.00,SW,216,0.0,1.0,87,-99.99,,,-99.99,,2013-02-22 09:11:00,
2013-02-22 02:21:00,5.0,2.0,-100.00,SSW,205,0.0,1.0,88,-99.99,,,-99.99,,2013-02-22 09:21:00,
2013-02-22 02:31:00,6.0,4.0,-100.00,SW,216,0.0,1.0,90,-99.99,,,-99.99,,2013-02-22 09:31:00,
2013-02-22 02:41:00,6.0,4.0,-100.00,SW,216,0.0,1.0,90,-99.99,,,-99.99,,2013-02-22 09:41:00,
2013-02-22 02:51:00,6.0,3.0,-100.00,South,178,1.0,2.0,88,-99.99,,,-99.99,,2013-02-22 09:51:00,
2013-02-22 03:01:00,7.0,4.0,-100.00,SSW,206,0.0,1.0,88,-99.99,,,-99.99,,2013-02-22 10:01:00,
2013-02-22 03:11:00,7.0,4.0,-100.00,SSW,206,0.0,1.0,88,-99.99,,,-99.99,,2013-02-22 10:11:00,
2013-02-22 03:21:00,7.0,4.0,-100.00,SSW,205,0.0,0.0,88,-99.99,,,-99.99,,2013-02-22 10:21:00,
2013-02-22 03:31:00,8.0,5.0,-100.00,SW,236,0.0,1.0,86,-99.99,,,-99.99,,2013-02-22 10:31:00,
2013-02-22 03:42:00,8.0,5.0,-100.00,SW,236,0.0,1.0,86,-99.99,,,-99.99,,2013-02-22 10:42:00,
2013-02-22 03:51:00,8.0,4.0,-100.00,NNE,17,1.0,3.0,85,-99.99,,,-99.99,,2013-02-22 10:51:00,
2013-02-22 04:01:00,8.0,6.0,-100.00,NNE,26,1.0,3.0,92,-99.99,,,-99.99,,2013-02-22 11:01:00,
2013-02-22 04:11:00,8.0,6.0,-100.00,NNE,26,1.0,3.0,92,-99.99,,,-99.99,,2013-02-22 11:11:00,
2013-02-22 04:21:00,8.0,7.0,-100.00,South,180,0.0,1.0,95,-99.99,,,-99.99,,2013-02-22 11:21:00,
2013-02-22 04:31:00,7.0,6.0,-100.00,SSE,161,0.0,2.0,95,-99.99,,,-99.99,,2013-02-22 11:31:00,
2013-02-22 04:42:00,7.0,6.0,-100.00,SSE,161,0.0,2.0,95,-99.99,,,-99.99,,2013-02-22 11:42:00,
2013-02-22 04:52:00,7.0,6.0,-100.00,SSE,152,0.0,2.0,95,-99.99,,,-99.99,,2013-02-22 11:52:00,
2013-02-22 05:02:00,8.0,7.0,-100.00,ESE,112,1.0,2.0,94,-99.99,,,-99.99,,2013-02-22 12:02:00,
2013-02-22 05:11:00,8.0,7.0,-100.00,ESE,112,1.0,2.0,94,-99.99,,,-99.99,,2013-02-22 12:11:00,
2013-02-22 05:21:00,8.0,6.0,-100.00,North,352,1.0,2.0,91,-99.99,,,-99.99,,2013-02-22 12:21:00,
2013-02-22 05:32:00,8.0,6.0,-100.00,East,85,1.0,4.0,90,-99.99,,,-99.99,,2013-02-22 12:32:00,
2013-02-22 05:42:00,8.0,6.0,-100.00,East,85,1.0,4.0,90,-99.99,,,-99.99,,2013-02-22 12:42:00,
2013-02-22 05:52:00,9.0,6.0,-100.00,East,85,1.0,3.0,89,-99.99,,,-99.99,,2013-02-22 12:52:00,
2013-02-22 06:01:00,8.0,5.0,-100.00,SE,135,1.0,3.0,88,-99.99,,,-99.99,,2013-02-22 13:01:00,
2013-02-22 06:11:00,8.0,5.0,-100.00,SE,135,1.0,3.0,88,-99.99,,,-99.99,,2013-02-22 13:11:00,
2013-02-22 06:22:00,8.0,6.0,-100.00,ENE,70,1.0,3.0,90,-99.99,,,-99.99,,2013-02-22 13:22:00,
2013-02-22 06:31:00,9.0,6.0,-100.00,North,353,1.0,2.0,89,-99.99,,,-99.99,,2013-02-22 13:31:00,
2013-02-22 06:41:00,9.0,6.0,-100.00,North,353,1.0,2.0,89,-99.99,,,-99.99,,2013-02-22 13:41:00,
2013-02-22 06:51:00,7.0,5.0,-100.00,WSW,248,0.0,1.0,92,-99.99,,,-99.99,,2013-02-22 13:51:00,
2013-02-22 07:01:00,7.0,6.0,-100.00,South,170,0.0,2.0,95,-99.99,,,-99.99,,2013-02-22 14:01:00,
2013-02-22 07:11:00,7.0,6.0,-100.00,South,170,0.0,2.0,95,-99.99,,,-99.99,,2013-02-22 14:11:00,
2013-02-22 07:21:00,7.0,6.0,-100.00,ENE,74,1.0,5.0,95,-99.99,,,-99.99,,2013-02-22 14:21:00,
2013-02-22 07:32:00,8.0,7.0,-100.00,WSW,252,0.0,1.0,94,-99.99,,,-99.99,,2013-02-22 14:32:00,
2013-02-22 07:42:00,8.0,7.0,-100.00,WSW,252,0.0,1.0,94,-99.99,,,-99.99,,2013-02-22 14:42:00,
2013-02-22 07:52:00,7.0,6.0,-100.00,South,177,0.0,1.0,95,-99.99,,,-99.99,,2013-02-22 14:52:00,
2013-02-22 08:01:00,7.0,6.0,-100.00,WSW,242,0.0,2.0,95,-99.99,,,-99.99,,2013-02-22 15:01:00,
2013-02-22 08:11:00,7.0,6.0,-100.00,WSW,242,0.0,2.0,95,-99.99,,,-99.99,,2013-02-22 15:11:00,
2013-02-22 08:21:00,8.0,7.0,-100.00,South,188,0.0,3.0,96,-99.99,,,-99.99,,2013-02-22 15:21:00,
2013-02-22 08:32:00,9.0,8.0,-100.00,NNE,12,1.0,2.0,94,-99.99,,,-99.99,,2013-02-22 15:32:00,
2013-02-22 08:41:00,9.0,8.0,-100.00,NNE,12,1.0,2.0,94,-99.99,,,-99.99,,2013-02-22 15:41:00,
2013-02-22 08:52:00,10.0,8.0,-100.00,NNE,25,1.0,3.0,93,-99.99,,,-99.99,,2013-02-22 15:52:00,
2013-02-22 09:01:00,10.0,9.0,-100.00,NNE,24,1.0,2.0,94,-99.99,,,-99.99,,2013-02-22 16:01:00,
2013-02-22 09:11:00,10.0,9.0,-100.00,NNE,24,1.0,2.0,94,-99.99,,,-99.99,,2013-02-22 16:11:00,
2013-02-22 09:21:00,11.0,10.0,-100.00,NNE,26,1.0,3.0,94,-99.99,,,-99.99,,2013-02-22 16:21:00,
2013-02-22 09:31:00,11.0,10.0,-100.00,North,10,2.0,3.0,96,-99.99,,,-99.99,,2013-02-22 16:31:00,
2013-02-22 09:41:00,11.0,10.0,-100.00,North,10,2.0,3.0,96,-99.99,,,-99.99,,2013-02-22 16:41:00,
2013-02-22 09:52:00,11.0,10.0,-100.00,North,11,2.0,4.0,95,-99.99,,,-99.99,,2013-02-22 16:52:00,
2013-02-22 10:01:00,11.0,10.0,-100.00,NNE,18,1.0,3.0,96,-99.99,,,-99.99,,2013-02-22 17:01:00,
2013-02-22 10:11:00,11.0,10.0,-100.00,NNE,18,1.0,3.0,96,-99.99,,,-99.99,,2013-02-22 17:11:00,
2013-02-22 10:21:00,12.0,11.0,-100.00,NNE,15,2.0,5.0,95,-99.99,,,-99.99,,2013-02-22 17:21:00,
2013-02-22 10:31:00,13.0,11.0,-100.00,NNE,18,1.0,3.0,92,-99.99,,,-99.99,,2013-02-22 17:31:00,
2013-02-22 10:42:00,13.0,11.0,-100.00,NNE,18,1.0,3.0,92,-99.99,,,-99.99,,2013-02-22 17:42:00,
2013-02-22 10:52:00,12.0,11.0,-100.00,NNE,21,2.0,4.0,95,-99.99,,,-99.99,,2013-02-22 17:52:00,
2013-02-22 11:01:00,13.0,12.0,-100.00,NNE,16,2.0,4.0,95,-99.99,,,-99.99,,2013-02-22 18:01:00,
2013-02-22 11:12:00,13.0,12.0,-100.00,NNE,16,2.0,4.0,95,-99.99,,,-99.99,,2013-02-22 18:12:00,
2013-02-22 11:22:00,13.0,12.0,-100.00,North,357,2.0,6.0,96,-99.99,,,-99.99,,2013-02-22 18:22:00,
2013-02-22 11:32:00,15.0,12.0,-100.00,North,4,2.0,4.0,86,-99.99,,,-99.99,,2013-02-22 18:32:00,
2013-02-22 11:42:00,15.0,12.0,-100.00,North,4,2.0,4.0,86,-99.99,,,-99.99,,2013-02-22 18:42:00,
2013-02-22 11:51:00,15.0,11.0,-100.00,NNE,13,3.0,4.0,82,-99.99,,,-99.99,,2013-02-22 18:51:00,
2013-02-22 12:01:00,16.0,10.0,-100.00,NNE,22,2.0,4.0,78,-99.99,,,-99.99,,2013-02-22 19:01:00,
2013-02-22 12:11:00,16.0,10.0,-100.00,NNE,22,2.0,4.0,78,-99.99,,,-99.99,,2013-02-22 19:11:00,
2013-02-22 12:21:00,16.0,9.0,-100.00,NNE,30,2.0,4.0,73,-99.99,,,-99.99,,2013-02-22 19:21:00,
2013-02-22 12:31:00,16.0,9.0,-100.00,North,0,2.0,5.0,74,-99.99,,,-99.99,,2013-02-22 19:31:00,
2013-02-22 12:41:00,16.0,9.0,-100.00,North,0,2.0,5.0,74,-99.99,,,-99.99,,2013-02-22 19:41:00,
2013-02-22 12:52:00,17.0,9.0,-100.00,NNE,32,2.0,4.0,71,-99.99,,,-99.99,,2013-02-22 19:52:00,
2013-02-22 13:01:00,17.0,9.0,-100.00,NNE,22,2.0,5.0,70,-99.99,,,-99.99,,2013-02-22 20:01:00,
2013-02-22 13:11:00,17.0,9.0,-100.00,NNE,22,2.0,5.0,70,-99.99,,,-99.99,,2013-02-22 20:11:00,
2013-02-22 13:21:00,17.0,8.0,-100.00,NNE,21,2.0,3.0,66,-99.99,,,-99.99,,2013-02-22 20:21:00,
2013-02-22 13:31:00,16.0,8.0,-100.00,NNE,31,2.0,5.0,70,-99.99,,,-99.99,,2013-02-22 20:31:00,
2013-02-22 13:41:00,16.0,8.0,-100.00,NNE,31,2.0,5.0,70,-99.99,,,-99.99,,2013-02-22 20:41:00,
2013-02-22 13:52:00,17.0,9.0,-100.00,NNE,31,2.0,5.0,69,-99.99,,,-99.99,,2013-02-22 20:52:00,
2013-02-22 14:01:00,16.0,8.0,-100.00,NNE,13,2.0,5.0,69,-99.99,,,-99.99,,2013-02-22 21:01:00,
2013-02-22 14:11:00,16.0,8.0,-100.00,NNE,13,2.0,5.0,69,-99.99,,,-99.99,,2013-02-22 21:11:00,
2013-02-22 14:21:00,15.0,6.0,-100.00,NNE,33,2.0,5.0,68,-99.99,,,-99.99,,2013-02-22 21:21:00,
2013-02-22 14:31:00,16.0,7.0,-100.00,NNE,29,3.0,8.0,66,-99.99,,,-99.99,,2013-02-22 21:31:00,
2013-02-22 14:42:00,16.0,7.0,-100.00,NNE,29,3.0,8.0,66,-99.99,,,-99.99,,2013-02-22 21:42:00,
2013-02-22 14:51:00,16.0,8.0,-100.00,North,3,2.0,5.0,69,-99.99,,,-99.99,,2013-02-22 21:51:00,
2013-02-22 15:01:00,15.0,6.0,-100.00,NNE,29,3.0,5.0,67,-99.99,,,-99.99,,2013-02-22 22:01:00,
2013-02-22 15:11:00,15.0,6.0,-100.00,NNE,29,3.0,5.0,67,-99.99,,,-99.99,,2013-02-22 22:11:00,
2013-02-22 15:21:00,15.0,6.0,-100.00,North,7,2.0,4.0,68,-99.99,,,-99.99,,2013-02-22 22:21:00,
2013-02-22 15:31:00,16.0,8.0,-100.00,NNE,13,2.0,6.0,69,-99.99,,,-99.99,,2013-02-22 22:31:00,
2013-02-22 15:41:00,16.0,8.0,-100.00,NNE,13,2.0,6.0,69,-99.99,,,-99.99,,2013-02-22 22:41:00,
2013-02-22 15:51:00,16.0,7.0,-100.00,NE,39,2.0,6.0,67,-99.99,,,-99.99,,2013-02-22 22:51:00,
2013-02-22 16:01:00,16.0,7.0,-100.00,ENE,62,2.0,4.0,66,-99.99,,,-99.99,,2013-02-22 23:01:00,
2013-02-22 16:11:00,16.0,7.0,-100.00,ENE,62,2.0,4.0,66,-99.99,,,-99.99,,2013-02-22 23:11:00,
2013-02-22 16:21:00,16.0,7.0,-100.00,North,10,1.0,3.0,68,-99.99,,,-99.99,,2013-02-22 23:21:00,
2013-02-22 16:31:00,15.0,7.0,-100.00,ESE,107,1.0,2.0,71,-99.99,,,-99.99,,2013-02-22 23:31:00,
2013-02-22 16:41:00,15.0,7.0,-100.00,ESE,107,1.0,2.0,71,-99.99,,,-99.99,,2013-02-22 23:41:00,
2013-02-22 16:52:00,15.0,8.0,-100.00,NNE,13,2.0,3.0,72,-99.99,,,-99.99,,2013-02-22 23:52:00,
2013-02-22 17:01:00,15.0,7.0,-100.00,NE,41,1.0,3.0,69,-99.99,,,-99.99,,2013-02-23 00:01:00,
2013-02-22 17:11:00,15.0,7.0,-100.00,NE,41,1.0,3.0,69,-99.99,,,-99.99,,2013-02-23 00:11:00,
2013-02-22 17:21:00,14.0,6.0,-100.00,NE,37,1.0,2.0,69,-99.99,,,-99.99,,2013-02-23 00:21:00,
2013-02-22 17:31:00,14.0,7.0,-100.00,SSW,211,0.0,1.0,73,-99.99,,,-99.99,,2013-02-23 00:31:00,
2013-02-22 17:41:00,14.0,7.0,-100.00,SSW,211,0.0,1.0,73,-99.99,,,-99.99,,2013-02-23 00:41:00,
2013-02-22 17:51:00,13.0,7.0,-100.00,East,83,0.0,2.0,77,-99.99,,,-99.99,,2013-02-23 00:51:00,
2013-02-22 18:01:00,13.0,8.0,-100.00,SSE,161,1.0,2.0,79,-99.99,,,-99.99,,2013-02-23 01:01:00,
2013-02-22 18:11:00,13.0,8.0,-100.00,SSE,161,1.0,2.0,79,-99.99,,,-99.99,,2013-02-23 01:11:00,
2013-02-22 18:21:00,12.0,7.0,-100.00,South,180,0.0,1.0,80,-99.99,,,-99.99,,2013-02-23 01:21:00,
2013-02-22 18:31:00,11.0,7.0,-100.00,SSE,160,1.0,1.0,82,-99.99,,,-99.99,,2013-02-23 01:31:00,
2013-02-22 18:41:00,11.0,7.0,-100.00,SSE,160,1.0,1.0,82,-99.99,,,-99.99,,2013-02-23 01:41:00,
2013-02-22 18:51:00,10.0,6.0,-100.00,South,185,1.0,2.0,83,-99.99,,,-99.99,,2013-02-23 01:51:00,
2013-02-22 19:01:00,11.0,7.0,-100.00,South,182,1.0,4.0,83,-99.99,,,-99.99,,2013-02-23 02:01:00,
2013-02-22 19:11:00,11.0,7.0,-100.00,South,182,1.0,4.0,83,-99.99,,,-99.99,,2013-02-23 02:11:00,
2013-02-22 19:21:00,11.0,7.0,-100.00,SE,143,0.0,2.0,83,-99.99,,,-99.99,,2013-02-23 02:21:00,
2013-02-22 19:31:00,10.0,6.0,-100.00,South,174,1.0,2.0,84,-99.99,,,-99.99,,2013-02-23 02:31:00,
2013-02-22 19:41:00,10.0,6.0,-100.00,South,174,1.0,2.0,84,-99.99,,,-99.99,,2013-02-23 02:41:00,
2013-02-22 19:52:00,9.0,6.0,-100.00,SSW,203,1.0,3.0,88,-99.99,,,-99.99,,2013-02-23 02:52:00,
2013-02-22 20:01:00,9.0,6.0,-100.00,SW,222,0.0,1.0,87,-99.99,,,-99.99,,2013-02-23 03:01:00,
2013-02-22 20:11:00,9.0,6.0,-100.00,SW,222,0.0,1.0,87,-99.99,,,-99.99,,2013-02-23 03:11:00,
2013-02-22 20:21:00,9.0,6.0,-100.00,South,182,0.0,1.0,88,-99.99,,,-99.99,,2013-02-23 03:21:00,
2013-02-22 20:31:00,9.0,6.0,-100.00,SSW,209,1.0,4.0,88,-99.99,,,-99.99,,2013-02-23 03:31:00,
2013-02-22 20:41:00,9.0,6.0,-100.00,SSW,209,1.0,4.0,88,-99.99,,,-99.99,,2013-02-23 03:41:00,
2013-02-22 20:51:00,8.0,5.0,-100.00,South,183,1.0,1.0,88,-99.99,,,-99.99,,2013-02-23 03:51:00,
2013-02-22 21:01:00,9.0,6.0,-100.00,South,178,0.0,1.0,89,-99.99,,,-99.99,,2013-02-23 04:01:00,
2013-02-22 21:11:00,9.0,6.0,-100.00,South,178,0.0,1.0,89,-99.99,,,-99.99,,2013-02-23 04:11:00,
2013-02-22 21:21:00,9.0,7.0,-100.00,SSE,160,0.0,1.0,90,-99.99,,,-99.99,,2013-02-23 04:21:00,
2013-02-22 21:31:00,9.0,6.0,-100.00,SSW,196,1.0,1.0,89,-99.99,,,-99.99,,2013-02-23 04:31:00,
2013-02-22 21:41:00,9.0,6.0,-100.00,SSW,196,1.0,1.0,89,-99.99,,,-99.99,,2013-02-23 04:41:00,
2013-02-22 21:51:00,9.0,7.0,-100.00,South,191,1.0,2.0,91,-99.99,,,-99.99,,2013-02-23 04:51:00,
2013-02-22 22:02:00,9.0,7.0,-100.00,South,176,1.0,2.0,93,-99.99,,,-99.99,,2013-02-23 05:02:00,
2013-02-22 22:11:00,9.0,7.0,-100.00,South,176,1.0,2.0,93,-99.99,,,-99.99,,2013-02-23 05:11:00,
2013-02-22 22:22:00,9.0,8.0,-100.00,SSW,196,1.0,1.0,96,-99.99,,,-99.99,,2013-02-23 05:22:00,
2013-02-22 22:32:00,8.0,7.0,-100.00,South,181,1.0,2.0,96,-99.99,,,-99.99,,2013-02-23 05:32:00,
2013-02-22 22:41:00,8.0,7.0,-100.00,South,181,1.0,2.0,96,-99.99,,,-99.99,,2013-02-23 05:41:00,
2013-02-22 22:52:00,8.0,7.0,-100.00,South,188,1.0,2.0,97,-99.99,,,-99.99,,2013-02-23 05:52:00,
2013-02-22 23:01:00,8.0,7.0,-100.00,South,184,0.0,1.0,96,-99.99,,,-99.99,,2013-02-23 06:01:00,
2013-02-22 23:11:00,8.0,7.0,-100.00,South,184,0.0,1.0,96,-99.99,,,-99.99,,2013-02-23 06:11:00,
2013-02-22 23:22:00,9.0,9.0,-100.00,SSW,193,1.0,2.0,98,-99.99,,,-99.99,,2013-02-23 06:22:00,
2013-02-22 23:31:00,9.0,9.0,-100.00,South,190,1.0,1.0,98,-99.99,,,-99.99,,2013-02-23 06:31:00,
2013-02-22 23:41:00,9.0,9.0,-100.00,South,190,1.0,1.0,98,-99.99,,,-99.99,,2013-02-23 06:41:00,
2013-02-22 23:51:00,9.0,9.0,-100.00,SW,221,0.0,1.0,99,-99.99,,,-99.99,,2013-02-23 06:51:00,